STARLINK-34661, 64927

Orbit data source: Space-Track

STARLINK-34661, 64927 is a payload satellite owned by SpaceX/Seattle (US) in LEO that was launched on Sat, 26 Jul 2025 UTC via an FALCON 9 launch vehicle from the Air Force Eastern Test Range (AFETR). Payload-class satellites include a variety of spacecraft equipped with specific instruments for various scientific and technological missions. These include communications satellites like Starlink; space stations such as the ISS; scientific satellites like the Hubble; Earth observation satellites from companies like Planet Labs, Umbra, and HawkEye 360; GPS; miniature CubeSats for education and research; and military/defense satellites.

Loading next visibility...
Identifier
64927, 2025-157Z
Orbit
LEO
Country
Flag of USUS
Related business
Manufacturer
SpaceX/Seattle
Mission
Operational Commercial Communications
Bus & Motor
STARLINK V2MO, Unknown motor
Mass
575 kg wet, ~530 kg dry
Launch date (UTC)
2025-07-26 (4 months ago)
Launch vehicle
FALCON 9
Launch site
Air Force Eastern Test Range (AFETR)
Object type
Payload
Rocket body
Debris
Shape & HBR
Box + 2 Pan, 17.7 m
Radar Cross Section
36.964 m², Large (>1 m²)

Expand to show TLE details & history
Last TLE update: 2 days ago

TLE from 2 days ago
0 STARLINK-34661
1 64927U 25157Z   25340.00003472  .00049027  00000-0  12296-2 0  9992
2 64927  53.1581  64.7054 0001413 112.7281 297.7390 15.39575516  5942
Epoch: 2025-12-06T00:00Z
TLE epoch observation values (Epoch: 2025-12-06T00:00:02.999Z)
Latitude
38.2295°
Longitude
25.59908°
Altitude
450.133 km
Speed
7.647 km/s
True Right ascension
06h 42m 34s
True Declination
38° 03' 18"
Sunlit
Object was in full shadow at epoch
Visualization orbit readout
Latitude
Unknown
Longitude
Unknown
Altitude
Unknown
Speed
Unknown
Apparent Right ascension
Unknown
Apparent Declination
Unknown
Sunlit
N/A
Visualization observer readout
Local Sidereal Time
12:34:18
Azimuth
Unknown
Elevation
Unknown
Doppler factor
Unknown
Orbital elements
Apogee altitude
448.586 km
Perigee altitude
446.657 km
Semi-major axis
6,825.758 km
Eccentricity
0.00014
Inclination
53.1581°
RAAN
64.7054°
Arg. of periapsis
112.7281°
True anomaly
297.72467°
Mean anomaly
297.739°
Eccentric anomaly
297.73183°
Mean motion
3.84872 °/min
Orbital period
93.54 mins
BSTAR
0.0012296
Loading maneuver chart data...
Computing Atmospheric mass density...
Loading historical data...
Loading historical data...
Loading historical data...
Loading historical data...
Loading historical data...
Loading historical data...
Loading historical data...

Documentation

Showing up to 5 results
|